{"data":{"norad_id":67517,"intl_designator":"2026-012AA","name":"STARLINK-36544","alt_names":[],"object_type":"PAYLOAD","status":"ACTIVE","operator":null,"country":"US","launch_date":"2026-01-18","launch_site_code":"AFETR","launch_vehicle":null,"mission":null,"orbit_class":"UNKNOWN","rcs_meters":null,"size_class":null,"mass_kg":null,"dimensions":null,"purposes":["comms"],"wikipedia_slug":null,"has_3d_model":false,"image_url":null,"decayed_at":null,"tle_current":{"epoch":"2026-05-25T00:04:45.698016Z","epoch_age_seconds":75537,"freshness":"FRESH","line1":"1 67517U 26012AA  26145.00330669  .00016201  00000+0  59679-3 0  9990","line2":"2 67517  43.0003 243.3640 0001513 288.2234  71.8453 15.27589252 19430","mean_motion":15.27589252,"eccentricity":0.0001513,"inclination_deg":43.0003,"raan_deg":243.364,"arg_perigee_deg":288.2234,"mean_anomaly_deg":71.8453,"bstar":0.00059679,"rev_number":1943,"period_min":94.26617777748,"perigee_km":481.98329909833,"apogee_km":484.05948562785,"semimajor_km":6861.1583923631,"source":"CELESTRAK","updated_at":"2026-05-25T13:38:21.602706Z"}}}